Vertical_Velocity
1 1 1 1 1 1 0 0 1 1 1 1 0 0 1 1 1 0 -1 -1 -1 -1 -1 -1 -1 -0 -0 0 1 1 1 0 0 0 0 0 1 1 2 1 0 1 3 6 4 2 1 1 2 2 1 0 1 1 0 0 2 2 2 1 1 1 1 1 0 -0 -1 -2 -2
0 0 1 1 0 0 0 0 0 1 1 1 1 1 1 1 0 0 -0 -1 -1 -1 -1 -1 -1 -1 -0 -0 0 1 1 0 0 -0 -0 -0 2 3 2 0 0 3 6 9 5 2 0 -0 1 3 4 1 0 -0 -0 1 5 8 7 3 2 2 3 0 0 1 0 -1 -2
0 0 0 0 0 -0 -0 -0 0 0 0 1 1 0 0 0 0 0 -0 -1 -1 -1 -1 -1 -1 -1 -0 -0 -0 0 0 0 -0 -1 -1 0 5 6 4 0 0 2 4 8 6 4 1 0 0 1 2 0 0 -0 0 3 8 10 8 3 1 3 4 0 1 2 2 -1 -1
-0 -0 0 0 -0 -0 -0 -0 -0 0 0 0 0 0 0 -0 0 0 0 -0 -1 -1 -1 -1 -1 -1 -1 -1 -1 -1 -1 -1 -1 -1 0 2 5 3 1 0 0 0 0 2 2 3 4 4 2 0 -0 0 2 2 1 1 3 3 3 1 2 4 5 2 0 0 1 0 -1
-0 -0 -0 -0 -0 -1 -1 -0 -0 -0 0 0 0 -0 -0 -0 0 0 0 0 -0 -1 -1 -1 -1 -1 -1 -1 -1 -1 -1 -2 -2 0 2 3 1 -0 -0 0 0 -1 -1 -2 -1 -0 1 3 1 0 -1 -1 0 1 1 -1 -1 -0 0 0 2 3 4 4 1 -0 -0 0 -1
-0 -0 -0 -1 -1 -1 -1 -1 -0 -0 -0 -0 -0 -0 -1 -0 0 0 0 0 -0 -1 -1 -1 -1 -1 -1 -1 -1 -1 -1 -2 -2 -1 -0 0 0 -0 -0 -0 -1 -1 -1 -1 -1 -1 -1 -1 -1 -1 -1 -1 -1 -1 -1 0 1 0 -1 -1 -2 -1 -0 0 -0 -0 -1 -1 -1
-0 -0 -0 -1 -1 -1 -1 -1 -1 -1 -1 -1 -1 -1 -1 -0 0 0 0 0 -0 -0 -1 -1 -1 -1 -1 -1 -1 -1 -1 -1 -1 -1 -1 -1 -1 -1 -1 -1 -1 -1 -1 -1 -1 -1 -1 -1 -1 -1 -2 -1 0 1 0 0 1 0 -1 -1 -2 -1 0 0 -1 -0 0 0 1
-0 -0 -1 -1 -1 -1 -1 -1 -1 -1 -1 -1 -1 -1 -0 -0 -0 0 0 0 -0 -0 -0 -1 -1 -1 -1 -1 -1 -1 -1 -1 -1 -1 -1 -1 -1 -1 -1 -1 -1 -1 -1 -1 -1 -1 -1 -1 -1 -1 -1 -1 0 0 0 1 0 0 0 0 -1 -1 -0 0 0 1 2 4 4
-1 -1 -1 -1 -1 -1 -1 -1 -1 -1 -1 -1 -1 -1 -1 -0 -0 -0 -0 -0 -0 -0 -0 -0 -1 -1 -1 -1 -1 -1 -1 -1 -1 -1 -1 -1 -1 -1 -1 -1 -1 -1 -1 -1 -1 -0 -1 -1 -1 -1 -1 -0 -0 -0 0 1 2 1 1 1 1 1 1 1 1 3 5 7 5
-1 -1 -1 -1 -1 -1 -1 -1 -1 -1 -1 -1 -1 -1 -0 -0 -0 -0 -0 -0 -0 -0 -0 -0 -0 -0 -1 -1 -1 -1 -1 -1 -1 -1 -1 -1 -1 -1 -1 -1 -0 -1 -1 -1 -1 -0 0 0 -0 -0 -0 0 0 0 0 1 2 2 1 2 2 2 2 1 2 4 7 6 4
-1 -1 -1 -1 -1 -1 -1 -1 -1 -1 -1 -1 -1 -1 -0 -0 -0 -0 -0 -0 -0 -1 -1 -0 0 -0 -0 -1 -1 -1 -1 -1 -1 -1 -1 -1 -1 -1 -1 -0 -0 -1 -1 -1 -1 -0 0 -0 0 0 0 0 1 1 1 1 2 2 2 1 2 2 2 2 2 3 4 2 0
-1 -1 -1 -1 -1 -1 -1 -1 -1 -1 -1 -1 -1 -1 -1 -0 -0 -0 -0 -0 -1 -1 -1 -1 -0 -0 -1 -1 -1 -1 -1 -0 -0 -0 -0 -1 -1 -1 -1 -0 -0 -0 -0 -1 -0 0 0 -0 -0 -0 -0 -0 0 1 1 2 2 2 1 0 1 1 1 1 0 -0 -1 -1 -1
-1 -1 -1 -1 -1 -1 -1 -1 -1 -1 -1 -1 -1 -1 -1 -1 -1 -1 -1 -1 -1 -1 -1 -1 -0 -0 -0 -0 -1 -1 -0 -0 0 -0 -0 -0 -0 -0 -0 -0 -0 0 0 -0 0 0 0 -0 0 0 0 -0 -0 0 1 1 1 1 1 -0 -0 -1 -1 -1 -2 -2 -2 -2 -1
-1 -1 -1 -1 -1 -1 -1 -1 -1 -1 -1 -1 -1 -1 -1 -1 -1 -1 -1 -1 -1 -1 -1 -1 -1 -0 -0 -0 -0 -0 -0 -0 -0 -0 -0 -0 -0 -0 -0 -0 -0 -0 0 0 0 0 1 1 1 1 1 0 -0 -0 -0 0 0 0 0 -0 -1 -1 -1 -2 -2 -2 -1 -1 -0
-1 -1 -1 -1 -1 -1 -1 -1 -1 -1 -1 -1 -1 -1 -1 -1 -1 -1 -1 -1 -1 -0 -0 -0 -0 -0 -0 0 0 0 -0 -0 -0 -0 -0 -1 -0 -0 -0 -0 -0 -0 -0 -0 -0 0 0 1 1 1 1 1 -0 -1 -1 -0 -0 -0 -0 -0 -0 -0 -1 -1 -1 -1 -1 0 1
-1 -1 -2 -2 -2 -1 -1 -1 -1 -1 -1 -1 -1 -1 -1 -1 -1 -1 -1 -0 -0 -0 -0 -0 -0 -1 -1 -1 -0 -0 -0 -1 -1 -1 -1 -1 -1 -1 -0 -0 -0 -0 0 0 -0 -0 0 1 1 1 1 1 0 -0 -0 -0 -0 -0 -0 -0 0 0 -0 -1 -1 -0 -0 0 1
-2 -2 -2 -2 -2 -1 -1 -1 -1 -1 -1 -1 -1 -1 -1 -1 -1 -1 -0 -0 -0 -1 -1 -1 -1 -1 -1 -1 -1 -1 -1 -1 -1 -1 -1 -1 -1 -0 -0 0 0 0 0 1 0 0 0 0 0 1 1 1 0 0 0 0 0 0 0 0 0 0 0 0 0 0 0 1 1
-2 -2 -2 -2 -1 -1 -1 -1 -1 -1 -1 -1 -1 -1 -1 -1 -1 -1 -1 -1 -1 -1 -1 -1 -1 -1 -1 -1 -1 -1 -1 -1 -1 -1 -1 -0 0 0 0 0 0 1 1 1 1 1 0 -0 -0 0 0 0 1 1 1 1 1 1 1 1 0 1 1 0 1 1 1 1 2
-2 -2 -2 -2 -1 -1 -1 -1 -1 -1 -1 -1 -1 -1 -1 -1 -1 -1 -1 -1 -1 -1 -1 -1 -1 -1 -1 -0 -0 -1 -0 -0 -0 -0 -0 0 0 0 1 1 1 1 1 1 0 0 0 -0 -0 0 0 0 1 1 1 2 2 1 1 1 1 1 1 1 1 1 1 2 2
-2 -2 -1 -1 -1 -1 -1 -1 -1 -1 -1 -1 -1 -1 -1 -1 -1 -1 -1 -1 -1 -1 -1 -0 -0 -0 -0 0 0 0 0 0 0 0 0 0 0 0 0 0 0 -0 -0 -0 -0 -0 -0 -0 0 0 1 1 1 1 1 1 1 1 1 1 1 1 1 1 1 1 1 1 1
-2 -2 -1 -1 -1 -1 -1 -1 -1 -1 -1 -1 -1 -1 -1 -1 -1 -1 -1 -1 -0 -0 0 0 0 0 0 0 0 0 0 0 1 0 0 0 0 0 0 0 -0 -1 -1 -1 -1 -1 -0 -0 0 0 0 1 1 1 1 1 1 1 1 1 1 1 1 1 1 1 0 0 0
-2 -1 -1 -1 -1 -1 -1 -1 -1 -1 -1 -1 -1 -1 -1 -1 -1 -0 -0 -0 0 0 0 0 0 0 0 0 0 -0 -0 -0 0 0 0 0 -0 -1 -1 -1 -1 -1 -1 -1 -1 -1 -1 -0 0 0 0 0 0 0 1 1 1 1 1 0 0 0 0 0 0 0 0 0 0
-1 -1 -1 -1 -1 -1 -2 -2 -2 -2 -2 -2 -1 -1 -1 -1 -1 -0 -0 -0 0 0 0 0 -0 -0 -0 -0 -1 -1 -1 -1 -1 -1 -0 -0 -1 -1 -1 -1 -1 -1 -1 -1 -1 -1 -1 -1 -0 0 0 1 0 0 0 1 1 1 0 0 0 -0 -0 -0 -0 0 0 -0 -0
-2 -2 -2 -2 -2 -2 -2 -2 -2 -2 -2 -2 -1 -1 -1 -1 -1 -1 -1 -1 -0 -1 -1 -1 -1 -1 -1 -1 -1 -1 -1 -1 -1 -1 -1 -1 -1 -1 -1 -1 -1 -1 -1 -1 -1 -1 -1 -0 0 0 0 1 0 0 0 0 0 0 1 1 0 0 -0 -1 -1 -1 -1 -1 -1
-2 -2 -2 -2 -3 -3 -3 -2 -2 -2 -2 -1 -1 -1 -1 -1 -1 -1 -1 -1 -1 -1 -1 -1 -1 -1 -1 -1 -1 -1 -1 -1 -1 -1 -1 -1 -1 -1 -1 -1 -1 -1 -1 -1 -1 -1 -1 0 0 1 1 1 0 -0 -1 -1 -0 0 0 1 1 1 1 -0 -1 -1 -1 -1 -1
-2 -2 -3 -3 -3 -3 -2 -2 -2 -2 -1 -1 -1 -1 -1 -1 -1 -1 -1 -1 -1 -1 -1 -1 -1 -1 -1 -1 -1 -1 -1 -1 -1 -1 -1 -1 -1 -1 -1 -1 -1 -1 -1 -1 -1 -1 -1 -0 0 1 2 1 0 -1 -1 -2 -1 -1 -0 0 1 1 1 1 0 -0 -0 -1 -0
-2 -2 -2 -2 -2 -2 -2 -2 -2 -1 -1 -1 -1 -1 -1 -1 -1 -1 -1 -1 -1 -1 -1 -1 -1 -1 -1 -1 -1 -1 -1 -1 -1 -1 -1 -1 -1 -1 -1 -1 -1 -1 -1 -1 -1 -1 -1 -1 0 1 2 2 1 -0 -1 -1 -1 -1 -0 -0 0 1 1 2 2 2 2 1 1
-2 -2 -2 -2 -2 -2 -1 -1 -1 -1 -1 -1 -1 -1 -1 -1 -1 -1 -1 -1 -1 -1 -1 -1 -1 -1 -1 -1 -1 -1 -1 -1 -1 -1 -1 -1 -1 -1 -1 -1 -1 -1 -1 -1 -1 -1 -1 -1 -0 1 2 2 1 0 0 0 0 0 0 0 0 1 1 2 2 3 4 4 4
-2 -2 -1 -1 -1 -1 -1 -1 -1 -1 -1 -1 -1 -1 -1 -1 -1 -1 -1 -1 -1 -1 -1 -1 -1 -1 -1 -1 -1 -1 -1 -1 -1 -1 -1 -1 -1 -1 -1 -1 -1 -1 -1 -1 -1 -1 -1 -1 -0 0 1 1 1 1 1 1 1 1 1 0 1 1 1 1 2 3 4 4 5
-1 -1 -1 -1 -1 -2 -2 -2 -2 -2 -2 -2 -2 -2 -1 -1 -1 -1 -1 -1 -1 -0 -0 -0 -0 -1 -1 -0 -1 -1 -1 -1 -1 -1 -1 -1 -1 -2 -2 -2 -2 -1 -1 -1 -1 -1 -1 -1 -0 0 1 1 1 1 1 1 1 1 1 0 1 1 1 1 2 2 3 3 4
-1 -1 -1 -2 -2 -2 -2 -2 -2 -2 -2 -2 -2 -2 -1 -1 -1 -1 -1 -0 -0 -1 -1 -0 -0 -0 -1 -1 -0 -0 -1 -1 -1 -1 -1 -1 -1 -2 -2 -2 -2 -2 -2 -1 -1 -1 -1 -1 0 1 1 1 0 0 0 0 0 0 0 0 0 1 1 1 1 1 2 2 3
-1 -2 -2 -2 -2 -2 -2 -2 -2 -2 -2 -2 -2 -2 -1 -1 -1 -1 -1 -0 -1 -1 -1 -1 -1 -1 -1 -1 -1 -1 -1 -1 -1 -1 -1 -1 -1 -2 -2 -2 -2 -2 -2 -1 -1 -1 -1 -1 0 1 1 1 0 0 0 0 -0 -0 -0 -0 0 0 0 1 0 0 1 1 1
-2 -2 -2 -2 -2 -2 -3 -2 -2 -2 -2 -2 -2 -1 -1 -1 -1 -1 -1 -1 -1 -1 -1 -1 -1 -1 -1 -1 -1 -1 -1 -1 -1 -1 -1 -1 -1 -2 -2 -3 -3 -2 -2 -2 -2 -1 -1 -1 0 1 1 1 1 0 0 -0 -1 -1 -1 -1 -1 -1 -0 -0 -0 -0 -0 -0 -0
-2 -2 -2 -2 -2 -2 -2 -2 -2 -2 -2 -1 -1 -1 -1 -1 -1 -1 -1 -1 -1 -1 -1 -1 -0 -0 -1 -1 -1 -1 -1 -2 -2 -1 -2 -2 -2 -2 -2 -3 -3 -3 -2 -1 -1 -1 -1 -1 0 1 2 2 1 1 0 -0 -1 -1 -1 -1 -1 -1 -1 -1 -2 -1 -1 -1 -1
-1 -1 -2 -2 -2 -2 -2 -2 -2 -2 -1 -1 -1 -1 -1 -1 -1 -1 -1 -1 -1 -1 -1 -1 -1 -1 -1 -1 -1 -1 -1 -1 -2 -2 -2 -1 -2 -2 -2 -3 -3 -2 -1 -1 -1 -1 -1 -1 -0 1 1 2 1 1 0 -0 -1 -1 -1 -0 -1 -1 -2 -2 -2 -2 -2 -1 -1
-1 -1 -1 -1 -1 -2 -2 -2 -2 -1 -1 -1 -1 -1 -1 -1 -1 -1 -1 -1 -1 -1 -1 -2 -2 -2 -2 -2 -2 -2 -2 -1 -1 -2 -2 -2 -1 -1 -2 -2 -2 -2 -1 -0 -0 -1 -1 -1 -1 -0 1 1 1 0 -0 -1 -1 -1 -0 0 -0 -1 -1 -2 -2 -2 -2 -2 -1
-1 -1 -1 -1 -1 -1 -1 -1 -1 -1 -1 -1 -1 -1 -1 -1 -1 -1 -1 -1 -1 -2 -2 -2 -2 -2 -2 -2 -2 -2 -2 -1 -1 -1 -2 -2 -1 -1 -1 -2 -2 -1 -1 -0 -0 -1 -1 -2 -2 -1 -0 0 0 -0 -1 -1 -1 -1 0 1 0 -0 -1 -2 -2 -2 -2 -2 -2
-0 -0 -1 -1 -1 -1 -1 -1 -1 -1 -1 -2 -1 -1 -1 -1 -1 -1 -1 -1 -1 -1 -2 -2 -2 -2 -2 -2 -2 -2 -2 -2 -1 -1 -1 -2 -1 -1 -1 -1 -1 -1 -0 -0 -1 -1 -2 -2 -3 -2 -1 0 0 0 -0 -0 -1 -0 1 2 1 0 -1 -2 -3 -3 -3 -3 -3
-0 -0 -0 -1 -1 -1 -1 -1 -1 -1 -1 -2 -2 -2 -2 -2 -2 -2 -1 -1 -1 -1 -1 -1 -2 -2 -2 -1 -1 -1 -1 -1 -1 -1 -1 -1 -2 -1 -1 -0 -1 -0 -0 0 -1 -1 -2 -3 -3 -2 -1 0 0 0 0 0 0 0 1 2 2 1 -0 -2 -3 -4 -4 -4 -3
0 -0 -1 -1 -1 -1 -1 -2 -2 -2 -2 -2 -2 -2 -2 -2 -1 -2 -1 -1 -1 -1 -1 -1 -1 -1 -1 -1 -0 -1 -1 -1 -1 -1 -1 -1 -2 -1 -1 0 0 -0 -0 -0 -0 -1 -2 -2 -2 -2 -2 -1 0 0 0 0 0 0 1 2 3 2 0 -1 -1 -2 -3 -4 -3
-0 -0 -1 -1 -1 -1 -1 -2 -2 -2 -2 -2 -2 -2 -2 -1 -1 -1 -1 -1 -1 -1 -1 -1 -1 -1 -1 -1 -0 -0 -1 -1 -1 -1 -2 -2 -2 -1 -1 0 1 0 0 0 -0 -0 -1 -1 -2 -2 -2 -1 -0 0 0 0 0 0 1 2 3 2 1 -0 -1 -0 0 0 -1
Height
5774 5773 5772 5771 5770 5769 5768 5767 5766 5765 5764 5763 5762 5761 5761 5760 5759 5758 5757 5757 5756 5755 5754 5753 5753 5752 5751 5750 5750 5749 5748 5747 5747 5746 5745 5744 5744 5743 5742 5741 5740 5739 5738 5737 5735 5734 5732 5731 5730 5728 5727 5725 5724 5723 5722 5720 5719 5717 5715 5714 5713 5711 5709 5708 5706 5704 5703 5701 5699
5772 5771 5770 5769 5768 5767 5766 5765 5764 5763 5762 5761 5760 5759 5759 5758 5757 5756 5755 5754 5754 5753 5752 5751 5751 5750 5749 5748 5748 5747 5746 5745 5744 5743 5743 5742 5741 5740 5739 5738 5738 5737 5736 5734 5733 5731 5730 5729 5728 5726 5724 5723 5722 5720 5719 5718 5717 5715 5712 5711 5710 5708 5707 5705 5703 5701 5700 5698 5696
5769 5768 5768 5767 5765 5764 5763 5763 5762 5761 5760 5759 5758 5758 5757 5756 5755 5754 5753 5753 5752 5751 5750 5749 5748 5748 5747 5746 5745 5744 5744 5743 5742 5741 5740 5739 5739 5738 5737 5736 5735 5734 5733 5731 5730 5729 5728 5726 5725 5723 5722 5720 5719 5718 5717 5716 5715 5713 5710 5708 5708 5706 5704 5702 5701 5699 5697 5695 5693
5767 5766 5765 5764 5763 5763 5762 5761 5760 5759 5758 5757 5756 5756 5755 5754 5753 5753 5752 5751 5750 5749 5748 5748 5747 5746 5745 5744 5743 5742 5742 5741 5740 5739 5738 5738 5737 5736 5735 5733 5732 5731 5730 5729 5728 5727 5725 5723 5722 5721 5720 5719 5717 5716 5715 5714 5712 5710 5708 5706 5705 5703 5702 5699 5698 5696 5694 5692 5691
5765 5764 5763 5762 5761 5760 5759 5758 5758 5757 5756 5755 5754 5754 5753 5752 5751 5751 5750 5749 5748 5747 5747 5746 5745 5744 5743 5742 5741 5740 5739 5738 5738 5737 5736 5735 5734 5733 5732 5731 5730 5728 5727 5726 5725 5724 5723 5722 5720 5719 5718 5716 5715 5714 5712 5710 5709 5707 5705 5704 5703 5701 5700 5697 5695 5693 5692 5689 5688
5763 5762 5761 5760 5759 5758 5757 5757 5756 5755 5754 5753 5753 5752 5751 5750 5749 5749 5748 5747 5746 5745 5745 5744 5743 5742 5741 5740 5739 5738 5737 5737 5736 5735 5734 5733 5732 5731 5729 5728 5727 5726 5725 5723 5722 5721 5720 5719 5718 5716 5715 5713 5712 5710 5709 5707 5706 5704 5703 5702 5700 5699 5697 5695 5693 5691 5689 5687 5685
5761 5760 5759 5758 5757 5756 5755 5755 5754 5753 5752 5752 5751 5750 5749 5748 5748 5747 5746 5745 5744 5744 5743 5742 5741 5740 5739 5738 5738 5736 5735 5734 5733 5732 5731 5730 5729 5728 5727 5726 5725 5723 5722 5721 5720 5719 5717 5716 5715 5713 5712 5711 5709 5708 5707 5705 5703 5702 5700 5699 5697 5696 5694 5692 5690 5689 5687 5685 5683
5759 5758 5757 5756 5755 5754 5753 5753 5752 5751 5750 5750 5749 5748 5748 5747 5746 5745 5744 5743 5743 5742 5741 5740 5739 5738 5738 5737 5736 5734 5733 5732 5731 5730 5729 5728 5727 5726 5725 5724 5723 5721 5720 5719 5718 5716 5715 5713 5712 5711 5710 5709 5708 5706 5705 5703 5701 5699 5698 5696 5694 5693 5691 5689 5687 5686 5684 5683 5681
5757 5756 5755 5754 5753 5753 5752 5751 5750 5749 5749 5748 5747 5746 5746 5745 5744 5743 5743 5742 5741 5740 5739 5738 5737 5736 5736 5734 5733 5733 5731 5730 5729 5728 5727 5726 5725 5724 5723 5722 5720 5719 5718 5716 5715 5714 5713 5712 5710 5709 5708 5706 5704 5703 5702 5700 5698 5697 5695 5693 5692 5690 5688 5687 5685 5683 5681 5680 5678
5755 5754 5753 5753 5752 5751 5750 5749 5748 5748 5747 5746 5745 5745 5744 5743 5743 5742 5741 5740 5739 5738 5737 5737 5736 5734 5733 5733 5732 5730 5729 5728 5728 5726 5725 5724 5723 5722 5720 5719 5718 5717 5715 5714 5713 5712 5711 5709 5708 5706 5705 5703 5702 5700 5698 5697 5696 5694 5693 5691 5689 5688 5686 5684 5682 5680 5678 5677 5675
5753 5753 5752 5751 5750 5749 5748 5748 5747 5746 5745 5744 5744 5743 5742 5742 5741 5740 5739 5738 5737 5736 5735 5734 5734 5733 5732 5731 5730 5728 5728 5727 5725 5724 5723 5722 5721 5719 5718 5717 5716 5715 5713 5712 5711 5709 5708 5707 5705 5704 5702 5701 5699 5698 5696 5695 5693 5692 5690 5688 5686 5685 5683 5681 5679 5678 5675 5673 5671
5752 5751 5750 5749 5748 5748 5747 5746 5745 5744 5744 5743 5742 5741 5741 5740 5739 5738 5737 5736 5736 5734 5733 5733 5732 5731 5730 5729 5728 5727 5726 5724 5723 5722 5721 5720 5718 5717 5716 5715 5714 5713 5711 5710 5708 5707 5705 5704 5703 5701 5699 5698 5697 5695 5693 5692 5690 5689 5687 5685 5683 5682 5680 5678 5676 5674 5671 5669 5668
5750 5749 5748 5748 5747 5746 5745 5744 5744 5743 5742 5741 5741 5740 5739 5738 5737 5737 5736 5735 5734 5733 5732 5731 5730 5729 5728 5727 5726 5725 5724 5723 5721 5720 5719 5718 5717 5715 5714 5713 5711 5710 5709 5707 5706 5704 5703 5701 5700 5698 5697 5696 5694 5693 5691 5689 5688 5686 5684 5682 5680 5678 5677 5674 5672 5670 5668 5666 5664
5748 5748 5747 5746 5745 5744 5744 5743 5742 5742 5741 5740 5739 5738 5738 5737 5736 5735 5734 5733 5732 5731 5730 5729 5728 5727 5726 5725 5724 5723 5722 5721 5719 5718 5717 5716 5714 5713 5712 5710 5709 5708 5706 5705 5703 5702 5701 5699 5698 5696 5695 5693 5691 5690 5688 5686 5684 5683 5681 5679 5677 5675 5673 5671 5669 5667 5665 5663 5660
5747 5746 5745 5745 5744 5743 5743 5742 5741 5740 5739 5738 5738 5737 5736 5735 5734 5733 5733 5732 5731 5730 5729 5728 5727 5726 5724 5723 5722 5721 5720 5718 5717 5716 5715 5713 5712 5711 5709 5708 5707 5705 5704 5702 5701 5699 5698 5697 5695 5693 5692 5690 5688 5687 5685 5683 5681 5679 5678 5676 5674 5672 5670 5668 5665 5663 5661 5659 5657
5746 5745 5744 5743 5743 5742 5741 5740 5739 5739 5738 5737 5736 5735 5735 5734 5733 5732 5731 5730 5729 5728 5727 5726 5725 5724 5723 5721 5720 5719 5718 5716 5715 5714 5712 5711 5710 5708 5707 5706 5704 5703 5701 5700 5698 5697 5695 5694 5693 5691 5689 5687 5685 5684 5682 5680 5678 5676 5674 5673 5671 5668 5666 5664 5662 5660 5658 5656 5654
5744 5743 5743 5742 5741 5741 5740 5739 5738 5738 5737 5736 5735 5734 5733 5733 5732 5731 5730 5728 5728 5726 5725 5724 5723 5722 5720 5719 5718 5717 5715 5714 5713 5712 5710 5709 5707 5706 5704 5703 5702 5700 5699 5698 5696 5694 5693 5691 5689 5688 5686 5684 5683 5681 5679 5677 5675 5673 5671 5669 5667 5665 5663 5661 5659 5657 5655 5653 5650
5743 5742 5742 5741 5740 5739 5738 5738 5737 5736 5735 5735 5734 5733 5732 5731 5730 5729 5728 5727 5726 5724 5723 5722 5721 5720 5718 5717 5716 5714 5713 5712 5710 5709 5708 5706 5705 5703 5702 5701 5699 5698 5696 5695 5693 5692 5690 5688 5687 5685 5683 5681 5680 5678 5676 5674 5672 5670 5668 5666 5664 5662 5660 5658 5656 5653 5651 5649 5647
5742 5741 5740 5739 5739 5738 5737 5737 5736 5735 5734 5733 5733 5731 5730 5729 5728 5727 5726 5725 5724 5723 5722 5720 5719 5718 5717 5715 5714 5713 5711 5710 5708 5707 5706 5704 5703 5701 5700 5698 5697 5695 5694 5692 5691 5689 5687 5685 5684 5682 5680 5678 5677 5675 5673 5672 5669 5668 5665 5663 5661 5659 5657 5655 5652 5650 5648 5645 5643
5740 5740 5739 5738 5738 5737 5736 5735 5734 5734 5733 5732 5731 5730 5729 5728 5727 5726 5724 5723 5722 5721 5720 5718 5717 5716 5715 5713 5712 5711 5709 5708 5706 5705 5703 5702 5700 5699 5698 5696 5694 5693 5691 5689 5688 5686 5684 5683 5681 5679 5678 5676 5674 5672 5671 5668 5667 5665 5663 5660 5658 5656 5653 5651 5649 5646 5644 5642 5639
5739 5738 5738 5737 5736 5736 5735 5734 5733 5732 5732 5731 5729 5728 5728 5726 5725 5724 5723 5722 5721 5719 5718 5717 5715 5714 5713 5711 5710 5708 5707 5706 5704 5703 5701 5699 5698 5697 5695 5693 5692 5690 5688 5687 5685 5683 5682 5680 5678 5677 5675 5673 5671 5669 5668 5666 5664 5662 5659 5657 5655 5653 5650 5648 5645 5643 5640 5638 5635
5738 5737 5737 5736 5735 5734 5733 5733 5732 5731 5730 5729 5728 5727 5726 5725 5724 5723 5721 5720 5719 5718 5716 5715 5713 5712 5711 5709 5708 5706 5705 5703 5702 5700 5699 5697 5696 5694 5692 5691 5689 5688 5686 5684 5683 5681 5679 5678 5676 5674 5672 5670 5668 5667 5665 5663 5661 5658 5656 5654 5652 5649 5647 5644 5642 5639 5637 5634 5631
5737 5736 5735 5735 5734 5733 5732 5732 5731 5730 5729 5728 5727 5726 5725 5723 5722 5721 5720 5718 5717 5716 5714 5713 5712 5710 5708 5707 5706 5704 5703 5701 5699 5698 5696 5695 5693 5691 5690 5688 5687 5685 5683 5682 5680 5678 5677 5675 5673 5671 5669 5668 5666 5664 5662 5660 5658 5655 5653 5651 5648 5646 5643 5641 5638 5636 5633 5630 5628
5735 5735 5734 5733 5733 5732 5731 5730 5729 5728 5728 5726 5725 5724 5723 5722 5720 5719 5718 5717 5715 5714 5712 5711 5709 5708 5706 5705 5703 5702 5700 5699 5697 5696 5694 5693 5691 5689 5688 5686 5684 5683 5681 5679 5677 5676 5674 5672 5670 5668 5667 5665 5663 5661 5659 5657 5654 5652 5650 5647 5645 5642 5640 5637 5634 5632 5629 5627 5624
5734 5733 5733 5732 5731 5731 5730 5729 5728 5727 5726 5725 5724 5723 5721 5720 5719 5717 5716 5715 5713 5712 5710 5709 5707 5706 5704 5703 5701 5700 5698 5697 5695 5693 5692 5690 5688 5687 5685 5683 5682 5680 5678 5677 5675 5673 5671 5669 5668 5666 5664 5662 5660 5658 5655 5653 5651 5649 5647 5644 5642 5639 5636 5633 5631 5628 5626 5623 5620
5733 5732 5732 5731 5730 5729 5728 5728 5726 5725 5724 5723 5722 5721 5720 5718 5717 5716 5714 5713 5711 5710 5708 5707 5705 5704 5702 5701 5699 5698 5696 5694 5693 5691 5689 5688 5686 5684 5683 5681 5679 5678 5676 5674 5672 5670 5668 5667 5665 5663 5661 5659 5657 5654 5652 5650 5648 5646 5643 5641 5638 5636 5633 5631 5628 5625 5622 5619 5617
5732 5731 5730 5729 5728 5728 5727 5726 5725 5724 5723 5722 5720 5719 5718 5717 5715 5714 5713 5711 5710 5708 5707 5705 5703 5702 5700 5699 5697 5696 5694 5692 5691 5689 5687 5686 5684 5682 5680 5679 5677 5675 5673 5671 5669 5668 5666 5664 5662 5660 5658 5656 5653 5651 5649 5647 5644 5642 5640 5638 5635 5633 5630 5628 5625 5622 5619 5616 5613
5730 5730 5729 5728 5727 5726 5725 5724 5723 5722 5721 5720 5719 5718 5716 5715 5713 5712 5711 5709 5708 5707 5705 5703 5702 5700 5698 5697 5695 5694 5692 5690 5688 5687 5685 5683 5682 5680 5678 5676 5674 5673 5671 5669 5667 5665 5663 5661 5659 5657 5655 5653 5650 5648 5646 5643 5641 5639 5637 5634 5632 5629 5627 5624 5621 5619 5616 5613 5610
5729 5728 5728 5727 5726 5725 5724 5723 5722 5721 5720 5718 5717 5716 5714 5713 5712 5710 5709 5708 5706 5705 5703 5702 5700 5698 5697 5695 5693 5692 5690 5688 5686 5684 5683 5681 5679 5677 5675 5673 5672 5670 5668 5666 5664 5662 5660 5658 5656 5654 5652 5650 5647 5645 5643 5640 5638 5636 5633 5631 5628 5626 5623 5620 5618 5615 5613 5609 5607
5728 5727 5726 5725 5724 5723 5723 5721 5720 5719 5718 5717 5715 5714 5713 5712 5710 5709 5707 5706 5704 5703 5701 5700 5698 5696 5695 5693 5691 5689 5688 5686 5684 5682 5680 5678 5677 5675 5673 5671 5669 5667 5665 5663 5661 5659 5657 5655 5653 5651 5649 5647 5644 5642 5640 5637 5635 5632 5630 5627 5625 5622 5619 5617 5614 5611 5608 5606 5603
5726 5725 5724 5723 5723 5722 5721 5720 5718 5717 5716 5715 5714 5712 5711 5710 5708 5707 5705 5704 5703 5701 5699 5698 5696 5694 5693 5691 5689 5687 5685 5683 5682 5680 5678 5676 5674 5672 5670 5668 5666 5664 5662 5660 5658 5656 5654 5652 5650 5648 5646 5643 5641 5639 5636 5634 5631 5629 5626 5623 5621 5618 5616 5613 5610 5608 5604 5602 5598
5724 5723 5723 5722 5721 5720 5719 5718 5717 5716 5714 5713 5712 5711 5709 5708 5707 5705 5703 5702 5700 5699 5697 5696 5694 5692 5690 5688 5687 5685 5683 5681 5679 5677 5675 5673 5671 5669 5667 5665 5663 5661 5659 5657 5655 5653 5651 5649 5647 5645 5643 5640 5638 5635 5633 5630 5628 5625 5623 5620 5617 5614 5612 5609 5606 5603 5600 5597 5594
5723 5722 5721 5720 5719 5718 5717 5716 5715 5714 5713 5711 5710 5709 5708 5706 5704 5703 5701 5700 5698 5697 5695 5693 5692 5690 5688 5686 5684 5683 5681 5679 5677 5675 5673 5671 5668 5667 5664 5662 5660 5658 5656 5654 5652 5650 5648 5646 5644 5642 5640 5637 5635 5632 5629 5627 5624 5622 5619 5616 5613 5611 5608 5605 5602 5599 5596 5593 5589
5721 5720 5719 5718 5718 5717 5716 5714 5713 5712 5711 5710 5708 5707 5706 5704 5703 5701 5699 5698 5696 5694 5693 5691 5689 5688 5686 5684 5682 5680 5678 5676 5674 5672 5670 5668 5666 5664 5662 5659 5657 5655 5653 5651 5649 5647 5645 5643 5641 5639 5637 5634 5632 5629 5626 5623 5620 5618 5615 5612 5609 5607 5603 5601 5598 5595 5592 5588 5585
5719 5719 5718 5717 5716 5715 5714 5713 5712 5710 5709 5708 5707 5705 5704 5702 5701 5699 5698 5696 5694 5692 5691 5689 5687 5685 5683 5681 5679 5678 5676 5673 5672 5669 5668 5665 5663 5661 5659 5657 5654 5652 5650 5648 5646 5644 5642 5640 5638 5636 5633 5631 5628 5625 5623 5620 5617 5614 5611 5608 5606 5603 5599 5596 5593 5590 5587 5584 5581
5718 5717 5716 5715 5714 5713 5712 5711 5710 5709 5708 5706 5705 5703 5702 5700 5698 5697 5695 5693 5692 5690 5688 5687 5685 5683 5681 5679 5677 5675 5673 5671 5669 5667 5665 5663 5661 5658 5656 5654 5652 5650 5648 5646 5643 5641 5639 5637 5635 5633 5630 5628 5625 5622 5619 5616 5613 5611 5608 5605 5602 5599 5595 5592 5589 5586 5583 5579 5576
5716 5715 5714 5713 5713 5712 5710 5709 5708 5707 5706 5704 5703 5701 5700 5698 5697 5695 5693 5691 5689 5688 5686 5684 5682 5680 5678 5677 5674 5673 5671 5668 5666 5664 5662 5660 5658 5656 5653 5651 5649 5647 5645 5643 5640 5638 5636 5634 5631 5629 5627 5624 5621 5618 5616 5613 5610 5607 5604 5601 5598 5595 5592 5588 5585 5581 5578 5575 5571
5714 5713 5713 5712 5711 5710 5708 5707 5706 5705 5704 5702 5701 5699 5698 5696 5694 5693 5691 5689 5687 5685 5683 5682 5680 5678 5676 5674 5672 5670 5668 5666 5664 5662 5660 5658 5655 5653 5651 5648 5646 5644 5642 5640 5638 5635 5633 5630 5628 5626 5623 5621 5618 5615 5612 5609 5606 5603 5601 5598 5594 5591 5587 5584 5580 5577 5573 5570 5567
5713 5712 5711 5710 5709 5708 5707 5705 5704 5703 5702 5700 5698 5697 5695 5694 5692 5690 5688 5687 5685 5683 5681 5679 5678 5675 5673 5672 5669 5668 5665 5663 5661 5659 5657 5655 5653 5650 5648 5646 5644 5641 5639 5637 5634 5632 5629 5627 5624 5622 5620 5617 5614 5612 5609 5606 5603 5600 5597 5594 5591 5587 5583 5579 5576 5572 5568 5565 5562
5711 5710 5709 5708 5707 5706 5705 5703 5702 5701 5699 5698 5696 5695 5693 5692 5690 5688 5686 5684 5683 5681 5679 5677 5675 5673 5671 5669 5667 5665 5663 5661 5659 5657 5654 5652 5650 5648 5645 5643 5641 5639 5636 5634 5631 5629 5626 5623 5621 5618 5616 5613 5611 5608 5605 5602 5599 5596 5593 5590 5587 5583 5579 5575 5572 5568 5564 5560 5557
5709 5708 5707 5706 5705 5704 5703 5701 5700 5698 5697 5696 5694 5693 5691 5689 5687 5686 5684 5682 5680 5678 5676 5674 5673 5670 5668 5666 5664 5663 5660 5658 5656 5654 5652 5649 5647 5645 5643 5641 5638 5636 5633 5631 5628 5626 5623 5620 5618 5615 5612 5610 5607 5604 5601 5598 5595 5593 5590 5587 5583 5580 5576 5572 5568 5564 5561 5557 5553